Kalamazoo, MI

9:48 PM EST on December 03, 2016 (GMT -0500)
Kalamazoo-Battle Creek International

Weather History for KAZO - December, 2013

Change the Weather History Date:

Monday, December 2, 2013

  Actual Average Record
Temperature  
Mean Temperature 33 °F 33 °F  
Max Temperature 41 °F 40 °F 67 °F (1982)
Min Temperature 25 °F 27 °F 1 °F (2008)
Degree Days  
Heating Degree Days 32 32  
Month to date heating degree days 61 63  
Since 1 July heating degree days 1418 1390  
Cooling Degree Days 0 0  
Month to date cooling degree days 0 0  
Year to date cooling degree days 725 675  
Moisture  
Dew Point 26 °F    
Average Humidity 76    
Maximum Humidity 92    
Minimum Humidity 59    
Precipitation  
Precipitation 0.00 in 0.08 in 0.63 in (1980)
Month to date precipitation 0.00 0.17  
Year to date precipitation 37.97 33.93  
Sea Level Pressure  
Sea Level Pressure 29.94 in    
Wind  
Wind Speed 3 mph (ESE)    
Max Wind Speed 8 mph    
Max Gust Speed 14 mph    
Visibility 6 miles    
Events Fog    
T = Trace of Precipitation, MM = Missing Value Source: NWS Daily Summary

Daily Weather History Graph

Daily Weather History Graph

Search for Another Location

Airport or City:

Trip Planner

Search our weather history database for the weather conditions in past years. The results will help you decide how hot, cold, wet, or windy it might be!

Date:

Astronomy

Dec. 02, 2013 Rise Set
Actual Time 7:52 AM EST 5:10 PM EST
Civil Twilight 7:21 AM EST 5:42 PM EST
Nautical Twilight 6:46 AM EST 6:16 PM EST
Astronomical Twilight 6:12 AM EST 6:50 PM EST
Moon 7:16 AM EST (12/2) 5:13 PM EST (12/2)
Length of Visible Light 10h 20m
Length of Day
9h 17m
Waning Crescent, 0% of the Moon is Illuminated
Dec 2
Waning Crescent
Dec 2
New
Dec 9
First Quarter
Dec 17
Full
Dec 25
Last Quarter

Hourly Weather History & Observations

Time (EST) Temp. Windchill Dew Point Humidity Pressure Visibility Wind Dir Wind Speed Gust Speed Precip Events Conditions
12:53 AM 30.9 °F - 27.0 °F 85% 30.01 in 8.0 mi Calm Calm - N/A   Mostly Cloudy
1:53 AM 28.9 °F - 25.0 °F 85% 29.99 in 7.0 mi Calm Calm - N/A   Partly Cloudy
2:53 AM 28.9 °F - 25.0 °F 85% 29.99 in 6.0 mi Calm Calm - N/A   Clear
3:53 AM 28.0 °F 24.2 °F 25.0 °F 88% 29.99 in 6.0 mi North 3.5 mph - N/A   Clear
4:53 AM 28.0 °F - 25.0 °F 88% 29.99 in 6.0 mi Calm Calm - N/A   Mostly Cloudy
5:53 AM 28.9 °F - 26.1 °F 89% 29.98 in 6.0 mi Calm Calm - N/A   Overcast
6:53 AM 28.0 °F - 25.0 °F 88% 29.97 in 4.0 mi Calm Calm - N/A   Mostly Cloudy
7:53 AM 28.0 °F - 25.0 °F 88% 29.98 in 2.0 mi Calm Calm - N/A   Partly Cloudy
8:00 AM 28.4 °F - 24.8 °F 86% 29.94 in 2.0 mi Calm Calm - N/A   Mostly Cloudy
8:06 AM 28.4 °F - 26.6 °F 93% 29.94 in 1.0 mi Calm Calm - N/A   Mostly Cloudy
8:26 AM 30.2 °F - 28.4 °F 93% 29.94 in 0.2 mi Calm Calm - N/A Fog Light Freezing Fog
8:53 AM 30.0 °F - 28.0 °F 92% 29.98 in 0.2 mi Calm Calm - N/A Fog Light Freezing Fog
9:53 AM 30.0 °F - 28.9 °F 96% 29.97 in 0.2 mi Calm Calm - N/A Fog Light Freezing Fog
9:55 AM 30.2 °F - 28.4 °F 93% 29.94 in 1.0 mi Calm Calm - N/A   Mist
10:21 AM 30.2 °F - 28.4 °F 93% 29.94 in 2.5 mi Calm Calm - N/A   Overcast
10:53 AM 30.9 °F 27.5 °F 28.9 °F 92% 29.97 in 2.5 mi East 3.5 mph - N/A   Overcast
11:00 AM 30.2 °F - 28.4 °F 93% 29.93 in 5.0 mi Calm Calm - N/A   Overcast
11:08 AM 30.2 °F 24.3 °F 28.4 °F 93% 29.93 in 2.0 mi ESE 5.8 mph - N/A   Overcast
11:53 AM 34.0 °F - 28.9 °F 82% 29.95 in 4.0 mi Calm Calm - N/A   Haze
12:53 PM 37.0 °F 33.3 °F 28.0 °F 70% 29.92 in 4.0 mi Variable 4.6 mph - N/A   Haze
1:53 PM 39.0 °F 34.0 °F 26.1 °F 60% 29.91 in 10.0 mi ESE 6.9 mph - N/A   Scattered Clouds
2:53 PM 39.9 °F 36.7 °F 26.1 °F 58% 29.88 in 10.0 mi ESE 4.6 mph - N/A   Scattered Clouds
3:53 PM 39.9 °F 35.8 °F 26.1 °F 58% 29.89 in 10.0 mi SSE 5.8 mph - N/A   Scattered Clouds
4:53 PM 37.9 °F 35.5 °F 25.0 °F 60% 29.88 in 10.0 mi SE 3.5 mph - N/A   Partly Cloudy
5:53 PM 36.0 °F - 25.0 °F 64% 29.88 in 10.0 mi Calm Calm - N/A   Clear
6:53 PM 35.1 °F 31.0 °F 25.0 °F 67% 29.88 in 10.0 mi East 4.6 mph - N/A   Overcast
7:53 PM 34.0 °F 31.0 °F 24.1 °F 67% 29.89 in 10.0 mi SE 3.5 mph - N/A   Overcast
8:53 PM 32.0 °F 28.7 °F 23.0 °F 69% 29.90 in 10.0 mi East 3.5 mph - N/A   Scattered Clouds
9:53 PM 34.0 °F 29.8 °F 24.1 °F 67% 29.90 in 10.0 mi ESE 4.6 mph - N/A   Overcast
10:53 PM 34.0 °F 28.0 °F 24.1 °F 67% 29.89 in 10.0 mi ESE 6.9 mph - N/A   Overcast
11:53 PM 34.0 °F 28.0 °F 24.1 °F 67% 29.89 in 10.0 mi SE 6.9 mph - N/A   Overcast